This is the latest recevied weather packets stored in our database for station/object W4ZHA. If no packets are shown the sender has not sent any weather packets the latest 10 day(s).
| Time | Temp. | Humidity | Pressure | Rain* | Wind** | Luminosity | Snow |
|---|---|---|---|---|---|---|---|
| 1787589132 | 29.44° C | 52% | 1017.9 hPa | 0 mm | - | 415 W/m² | - |
| 1787588827 | 28.89° C | 50% | 1017.9 hPa | 0 mm | - | 409 W/m² | - |
| 1787588523 | 28.33° C | 53% | 1018.3 hPa | 0 mm | - | 399 W/m² | - |
| 1787588218 | 27.78° C | 57% | 1018.3 hPa | 0 mm | - | 388 W/m² | - |
| 1787587913 | 27.22° C | 54% | 1017.9 hPa | 0 mm | - | 324 W/m² | - |
| 1787587609 | 27.22° C | 55% | 1017.9 hPa | 0 mm | - | 59 W/m² | - |
| 1787587303 | 27.22° C | 56% | 1017.9 hPa | 0 mm | - | 220 W/m² | - |
| 1787587003 | 26.67° C | 58% | 1017.9 hPa | 0 mm | - | 175 W/m² | - |
| 1787586698 | 27.22° C | 57% | 1017.9 hPa | 0 mm | - | 357 W/m² | - |
| 1787586393 | 26.67° C | 60% | 1017.9 hPa | 0 mm | - | 121 W/m² | - |
| 1787586089 | 26.11° C | 60% | 1017.9 hPa | 0 mm | - | 53 W/m² | - |
| 1787585785 | 26.11° C | 59% | 1017.9 hPa | 0 mm | - | 45 W/m² | - |
| 1787585480 | 26.11° C | 61% | 1017.9 hPa | 0 mm | - | 44 W/m² | - |
| 1787585174 | 25.56° C | 59% | 1017.9 hPa | 0 mm | - | 47 W/m² | - |
| 1787584869 | 26.11° C | 60% | 1017.9 hPa | 0 mm | - | 43 W/m² | - |
| 1787584569 | 26.11° C | 62% | 1017.9 hPa | 0 mm | - | 43 W/m² | - |
| 1787584268 | 26.11° C | 65% | 1017.9 hPa | 0 mm | - | 43 W/m² | - |
| 1787583962 | 25.56° C | 63% | 1017.9 hPa | 0 mm | - | 41 W/m² | - |
| 1787583657 | 25° C | 64% | 1017.9 hPa | 0 mm | - | 41 W/m² | - |
| 1787583356 | 25° C | 64% | 1017.9 hPa | 0 mm | - | 54 W/m² | - |
| 1787583049 | 25° C | 64% | 1017.9 hPa | 0 mm | - | 43 W/m² | - |
| 1787582744 | 25° C | 65% | 1018.3 hPa | 0 mm | - | 39 W/m² | - |
| 1787582441 | 25° C | 66% | 1017.9 hPa | 0 mm | - | 39 W/m² | - |
| 1787582136 | 25° C | 65% | 1017.9 hPa | 0 mm | - | 38 W/m² | - |
| 1787581830 | 25° C | 65% | 1017.9 hPa | 0 mm | - | 38 W/m² | - |
* Rain latest hour (hover to see other rain measurements)
** Current wind speed in m/s (hover to see current wind gust speed)